Temp
14 13 13 13 13 13 13 13 12 12 12 12 12 12 12 12 12 12 12 11 11 11 11 12 12 12 12 12 12 12 12 12 12 11 12 12 12 13 14 13 14 14 14
13 13 13 13 13 12 12 12 12 12 12 12 12 12 12 12 12 11 11 11 11 11 10 11 11 11 11 11 11 12 11 11 11 11 11 11 11 12 13 13 13 14 14
13 13 13 12 12 12 12 12 12 12 12 12 12 12 12 12 12 11 11 11 11 10 10 10 10 10 10 10 11 11 11 10 10 10 10 11 11 11 12 13 13 13 13
13 12 12 12 12 11 11 11 12 12 11 11 12 12 12 12 11 11 11 11 10 10 10 10 9 9 9 9 10 10 10 10 10 10 10 10 10 11 12 13 12 12 12
12 12 12 11 11 11 11 11 11 10 10 11 11 11 11 11 11 11 10 10 10 10 10 10 10 10 9 9 9 10 10 10 10 10 10 10 10 10 11 11 12 12 12
12 12 11 11 11 11 10 10 10 10 10 9 11 11 10 11 11 11 10 10 10 10 9 9 9 9 9 9 9 8 9 9 10 10 10 9 10 10 10 11 12 12 11
12 11 11 11 10 10 10 10 9 9 9 9 10 10 10 10 10 10 10 10 9 9 9 9 9 9 9 9 9 9 8 9 9 9 9 9 9 10 10 10 11 11 11
12 11 11 10 10 10 9 9 9 9 8 8 7 7 11 11 10 9 9 9 9 8 8 9 9 9 9 9 9 9 9 8 8 9 9 9 9 9 10 10 11 11 11
12 11 11 10 10 10 9 9 8 8 7 8 7 7 10 10 8 8 8 8 8 8 8 8 8 7 7 7 7 8 8 8 8 8 9 9 10 10 10 10 11 11 11
11 11 10 10 10 9 9 8 8 8 7 7 7 7 7 6 8 9 8 8 8 8 8 8 7 7 6 6 6 5 5 6 7 8 8 9 10 10 10 10 10 11 11
10 10 10 10 9 9 9 8 8 7 7 7 6 6 6 5 5 6 8 7 6 6 6 6 7 6 6 5 5 5 5 5 6 6 7 8 9 9 10 10 10 10 11
10 10 9 9 9 9 8 8 8 8 7 7 6 6 5 6 6 5 6 7 6 5 5 5 6 6 5 5 5 5 5 4 4 5 6 7 8 9 9 9 9 9 9
9 9 9 9 8 8 8 8 8 8 7 7 7 6 6 5 4 3 4 5 5 6 5 5 6 5 5 4 4 4 4 4 3 4 5 6 6 6 7 7 8 9 9
9 9 8 8 8 8 8 8 8 7 7 7 7 6 6 5 4 3 3 3 5 4 5 5 5 4 4 4 4 2 2 3 2 3 3 3 4 4 4 5 6 7 7
8 8 8 8 8 8 8 8 7 7 7 7 6 6 5 5 4 4 3 1 2 4 5 4 4 4 3 2 2 1 1 1 1 2 2 2 3 3 3 4 4 5 6
8 8 8 8 8 8 7 7 7 7 7 6 6 5 5 4 4 3 3 2 1 1 3 3 3 2 1 1 1 1 1 2 2 2 2 2 2 3 3 3 4 4 5
8 8 8 7 7 7 7 7 7 7 6 6 5 4 4 4 3 3 2 2 0 -0 1 2 1 1 0 1 1 1 1 1 2 2 1 2 2 2 3 3 3 3 4
8 8 7 7 7 7 7 7 6 6 5 5 5 4 4 3 3 3 2 1 0 0 -0 1 1 0 0 0 0 -0 0 0 1 1 1 1 2 2 2 2 2 3 3
7 7 7 7 7 6 6 6 5 5 5 5 5 4 4 3 3 2 2 1 1 0 -0 -1 -0 -0 -0 -0 -0 0 0 0 0 0 0 0 1 1 1 1 2 2 2
7 7 6 6 6 6 6 5 5 5 5 4 4 4 3 3 3 2 2 1 0 -0 -0 -1 -1 -1 -1 -0 0 0 1 1 1 0 0 -0 0 1 1 1 1 1 1
6 6 6 6 5 5 5 5 5 4 4 4 4 4 3 3 3 2 1 1 0 -0 -0 -0 -1 -0 0 1 1 1 0 1 0 0 0 0 0 -0 -0 0 1 2 2
6 5 5 5 5 5 5 5 4 4 3 3 3 3 3 3 2 2 1 1 1 -0 -0 -0 -0 0 0 0 0 -0 -0 -0 -0 -0 -0 -0 -0 -0 -0 -0 -0 -0 -0
5 5 5 5 5 5 5 4 3 2 2 1 1 1 1 1 2 1 1 0 0 1 1 0 -0 0 -0 -0 -0 -1 -1 -0 -0 -0 -1 -0 -0 -0 -1 -0 -0 -0 -0
4 4 4 4 4 4 3 3 3 2 1 1 1 0 -0 0 1 0 -0 -0 0 0 -0 -0 -1 -0 -0 -0 -1 -1 -1 -1 -1 -1 -0 -1 -0 -0 0 -0 -1 -1 -0
4 4 3 3 2 3 2 2 1 1 -0 -0 0 0 -0 -0 0 -0 -1 -1 -1 -1 -0 -0 -1 -1 -1 -1 -0 -0 -1 -1 -0 -1 -1 -1 -1 -1 -1 -1 -1 -1 -1
2 2 2 2 2 1 1 1 -1 -1 -1 -1 -1 -1 -0 -1 -1 -0 -0 -0 -1 -1 -1 -1 -1 -0 -1 -1 -1 -1 -2 -2 -2 -2 -2 -2 -1 -1 -1 -0 -1 -0 0
Height
844 845 844 844 843 842 840 839 838 836 835 833 832 830 829 828 828 827 827 826 826 825 824 824 823 822 822 821 820 820 819 818 818 818 816 815 813 811 809 808 808 807 808
844 844 844 843 843 842 841 839 838 836 835 833 831 829 827 826 826 826 826 826 825 825 825 824 823 823 822 821 820 819 818 818 818 817 815 813 812 811 810 808 807 806 806
843 843 843 843 842 841 840 839 837 836 834 831 829 827 825 824 823 824 824 825 825 825 824 824 823 822 822 821 820 819 818 817 816 815 813 811 810 810 809 808 808 807 806
842 842 842 842 841 840 839 838 836 834 832 830 828 825 823 821 820 820 821 822 822 823 823 823 823 822 821 820 819 818 817 816 814 813 812 810 808 808 807 808 807 807 806
841 841 841 841 841 840 839 837 836 834 832 830 828 825 823 822 821 822 822 821 821 820 820 821 821 820 820 820 819 817 816 814 813 811 810 808 807 806 806 806 806 806 805
840 841 841 841 840 840 839 837 835 834 832 830 827 825 823 822 822 822 822 821 821 820 819 817 817 817 816 817 817 816 814 813 811 810 808 807 805 804 804 804 804 805 804
840 840 840 840 840 839 838 836 835 834 832 829 826 824 823 823 823 823 822 821 820 820 819 819 816 814 813 812 812 811 811 811 810 808 806 805 803 803 802 802 802 803 803
838 839 839 839 839 838 838 836 835 834 833 832 832 830 826 825 824 823 823 823 823 822 821 819 817 815 811 809 807 806 805 806 806 806 804 803 802 800 800 799 799 800 800
836 837 838 838 838 837 837 836 835 834 834 833 832 833 830 829 829 823 823 823 822 822 820 818 815 813 811 809 807 804 801 800 800 802 802 801 799 798 797 797 797 797 797
834 835 836 836 836 836 836 835 834 834 833 833 832 833 833 834 832 826 823 821 820 818 817 815 813 809 807 806 807 807 804 801 799 798 798 797 796 795 794 794 794 794 794
832 833 834 834 834 834 834 834 833 833 834 833 833 833 833 832 832 833 824 822 818 816 814 812 810 808 806 804 804 804 803 802 800 797 795 794 793 792 791 790 790 790 790
830 831 832 832 833 833 833 833 833 832 832 832 832 832 832 832 831 830 827 822 820 813 812 811 809 808 807 805 803 801 800 798 797 795 793 791 790 788 787 787 786 786 786
828 829 830 831 832 832 832 832 832 832 831 830 830 829 829 828 827 826 826 822 819 811 808 807 807 807 807 805 802 799 796 795 793 792 790 788 786 785 783 782 782 782 782
826 828 829 830 830 831 831 831 831 831 830 829 828 826 825 826 824 823 823 823 817 814 807 804 803 802 802 802 801 798 793 791 789 787 786 784 783 781 779 778 778 778 778
825 827 828 829 829 830 830 830 830 829 828 828 827 825 824 823 821 821 819 820 821 813 806 804 802 800 800 798 795 794 791 788 786 784 782 781 779 777 776 775 774 773 773
824 826 827 827 828 828 828 828 828 828 827 825 824 823 821 820 818 817 815 816 816 815 809 805 801 798 796 793 791 790 788 785 782 780 778 777 774 773 772 771 770 769 768
824 825 826 826 826 827 826 826 826 825 825 823 822 821 818 816 814 812 811 810 810 808 805 799 796 793 791 788 786 785 783 781 778 775 774 773 770 768 767 767 766 764 763
823 824 824 825 826 825 826 825 824 823 822 820 818 818 814 812 809 807 806 805 802 802 800 795 792 789 787 784 781 780 779 777 775 772 769 768 765 763 762 761 760 759 758
822 823 824 824 824 824 824 823 822 820 817 815 813 812 809 807 803 801 800 798 796 795 794 791 787 785 782 779 776 774 773 772 770 767 765 763 759 757 756 755 754 753 752
821 822 822 822 822 822 821 820 818 815 812 811 809 806 803 800 798 796 794 792 790 789 788 786 783 780 778 774 773 770 767 766 764 762 760 756 753 751 750 749 748 746 745
819 820 820 820 820 819 818 815 812 808 806 804 801 799 795 793 791 788 786 783 783 782 780 778 777 774 771 769 767 765 762 760 757 755 751 750 748 746 744 742 741 739 737
818 818 818 817 816 815 813 810 807 802 798 796 793 790 788 785 782 780 778 777 776 774 772 771 769 767 765 764 762 760 758 755 752 751 747 743 743 739 738 736 733 731 730
816 816 815 813 811 809 807 805 801 797 792 789 787 783 779 777 774 771 769 768 767 766 764 764 762 760 758 758 757 754 752 749 746 744 742 734 736 730 729 727 726 724 723
813 812 811 809 806 804 802 799 794 790 785 782 779 777 772 768 766 764 762 760 758 757 756 756 754 752 751 750 750 748 745 742 738 737 737 727 727 722 721 719 717 715 714
810 808 807 804 801 798 796 792 788 784 780 775 772 769 766 761 758 757 756 754 751 748 748 748 746 745 744 743 743 742 739 737 732 728 728 724 720 716 714 711 708 705 705
807 804 801 800 796 792 790 788 785 781 775 770 766 762 759 757 754 752 750 748 745 743 742 740 738 737 737 736 736 736 734 731 729 723 719 718 716 716 706 704 702 701 700
Wind_Speed
5 5 6 7 9 10 11 12 12 13 13 13 11 10 10 7 4 3 2 3 4 5 5 5 5 5 7 8 8 8 8 8 9 9 10 12 11 8 4 4 6 7 8
4 5 6 7 8 9 11 12 13 13 13 13 12 13 10 7 4 3 3 2 3 3 5 5 5 4 4 5 7 6 7 7 8 9 11 12 12 9 6 6 6 5 2
3 4 6 7 8 9 10 11 12 11 11 11 12 12 9 7 3 3 3 2 2 3 3 5 5 5 5 5 5 5 5 5 7 9 10 10 12 10 7 6 4 4 3
2 4 6 7 8 9 10 11 12 12 12 13 15 12 12 6 4 4 4 4 1 1 3 3 5 7 7 6 5 5 6 7 7 7 9 10 10 9 9 8 7 5 4
2 3 5 7 8 9 10 11 12 14 14 15 16 11 8 7 3 2 2 3 3 2 1 2 4 5 7 8 8 7 7 8 8 9 8 8 9 9 9 10 9 8 8
4 3 5 6 7 9 10 11 11 12 11 16 12 10 7 7 5 2 1 2 3 3 3 3 4 5 6 9 10 10 10 9 8 8 9 8 8 8 8 9 6 9 9
4 4 5 5 7 8 8 9 10 9 9 16 9 5 3 5 8 5 3 3 3 1 2 3 4 7 9 9 10 12 12 11 10 10 9 10 9 8 8 9 9 10 9
5 5 5 5 6 6 7 7 8 7 7 12 7 4 3 2 3 6 2 5 6 4 8 10 12 13 13 14 14 12 10 11 11 11 10 10 10 10 9 8 9 10 11
5 5 5 4 4 5 5 5 6 6 5 6 8 4 2 3 8 3 3 3 7 11 18 17 14 15 15 13 11 8 7 8 9 10 12 11 11 11 11 10 10 11 12
4 5 5 4 4 4 4 4 5 4 4 3 3 3 2 2 2 5 3 8 12 18 17 12 18 11 11 6 6 7 11 10 8 7 10 13 13 12 13 12 12 12 12
5 6 6 5 5 4 4 3 3 4 4 4 3 3 2 2 4 4 6 7 16 12 12 19 11 10 6 3 2 9 14 14 14 12 11 12 14 15 14 14 14 14 14
6 6 6 5 4 3 2 2 2 2 3 3 3 3 3 2 2 4 4 11 15 10 15 7 12 7 7 3 8 16 17 15 14 14 14 14 14 15 15 15 14 13 12
7 7 6 5 4 3 2 1 1 2 2 3 3 4 6 7 8 6 8 10 5 10 5 11 2 8 4 9 15 23 19 17 16 16 15 15 15 15 17 15 14 15 14
8 7 6 5 4 3 2 1 1 2 3 4 5 7 8 9 9 8 6 7 7 6 8 4 6 5 6 12 27 21 18 19 16 15 15 15 16 16 17 17 17 16 17
7 7 6 5 4 3 2 2 3 3 5 6 9 10 11 10 10 11 11 9 7 5 7 4 4 5 14 22 19 18 17 19 17 15 15 15 15 15 16 17 17 18 20
8 7 6 6 5 4 4 3 4 6 9 11 13 13 13 13 12 13 12 12 11 13 6 8 10 16 15 17 17 15 18 18 17 15 15 14 14 15 15 16 17 18 18
7 7 7 7 6 6 5 6 8 10 13 15 16 16 16 15 15 14 14 14 13 12 13 20 16 18 17 15 15 15 16 16 18 15 15 15 16 15 16 17 17 18 18
7 7 7 7 7 7 8 10 13 15 17 19 20 19 20 18 18 16 16 16 15 14 14 18 18 17 17 16 16 17 14 14 15 16 16 17 18 18 18 18 18 18 18
7 7 7 7 8 8 11 14 17 20 21 21 22 22 23 21 21 20 19 19 18 16 15 15 19 17 17 17 18 15 15 14 13 15 16 20 21 20 18 17 18 18 19
7 7 8 8 9 11 15 19 22 22 22 23 24 26 26 25 25 24 22 21 18 15 15 15 16 17 17 16 16 18 19 17 18 17 20 21 20 20 19 20 20 19 20
6 8 9 10 11 16 20 22 24 24 24 26 27 29 30 29 28 26 24 23 20 17 16 16 16 16 17 15 16 17 20 21 23 23 22 19 17 18 19 20 21 24 25
6 7 9 12 17 20 22 23 24 27 27 28 31 32 33 31 30 29 25 25 23 19 20 18 18 18 20 18 18 18 19 19 10 17 15 26 25 25 22 21 23 24 23
5 8 13 16 19 21 23 25 26 27 29 29 31 32 32 32 32 31 28 24 23 24 25 23 22 22 21 19 18 20 20 21 21 23 23 28 25 28 24 25 23 25 24
9 13 16 19 23 25 26 27 27 28 30 31 32 31 29 31 32 30 28 26 25 25 25 23 21 23 22 21 20 22 25 24 20 26 22 24 23 26 26 23 23 24 25
14 16 18 22 24 26 25 25 25 26 27 29 31 30 29 29 29 26 21 22 21 23 23 21 22 24 24 22 22 23 19 18 20 26 24 23 23 23 24 24 26 22 20
16 19 21 21 22 26 24 23 21 21 22 25 27 28 31 24 22 22 22 21 22 23 20 23 22 23 22 22 21 20 22 20 18 18 15 11 15 14 12 15 11 8 9
Wind_Direction
75 58 43 34 28 24 20 16 13 11 9 7 2 352 344 333 317 293 289 347 4 19 28 22 7 338 341 1 14 11 7 4 316 330 325 335 347 2 343 293 279 270 272
66 49 32 21 16 14 12 7 3 0 360 357 354 345 333 323 291 275 258 297 355 18 31 31 37 26 4 345 358 336 338 333 326 327 325 330 338 348 10 36 51 53 18
48 29 18 10 5 3 2 359 357 354 349 345 344 342 336 321 276 242 236 250 335 360 14 22 17 9 358 352 349 339 326 319 318 322 325 319 323 331 336 311 324 13 39
13 8 2 357 356 354 353 351 348 350 350 347 345 341 334 334 241 203 204 209 229 2 8 14 7 6 5 357 346 334 329 325 315 321 321 322 312 307 295 286 295 317 345
303 331 345 350 350 346 344 348 352 354 351 350 347 350 357 358 130 149 170 203 214 230 311 343 343 350 349 349 340 329 322 318 314 309 311 313 313 305 294 312 266 291 313
276 311 335 340 342 342 347 352 356 356 356 352 350 355 30 62 96 99 213 228 231 252 259 277 298 312 317 319 318 318 311 314 314 307 304 303 303 301 291 285 280 271 282
275 293 314 327 342 346 346 350 355 359 359 359 355 5 45 105 63 44 8 261 228 241 333 338 317 309 308 301 304 310 303 297 299 305 301 297 293 292 288 275 261 262 262
269 273 289 316 333 342 345 350 360 3 0 10 3 341 355 324 327 354 50 85 84 53 1 339 325 313 303 296 296 293 290 289 293 292 298 295 288 283 278 270 261 255 262
254 259 268 295 316 330 342 349 354 5 8 9 28 37 337 341 330 321 327 278 338 331 332 327 326 327 323 319 313 307 301 284 292 291 289 290 286 278 273 269 261 256 252
240 243 248 264 285 306 322 331 339 348 357 2 13 17 355 289 329 317 324 296 309 317 322 334 326 329 324 334 3 16 1 355 344 316 294 284 281 280 269 262 260 257 256
235 239 241 241 256 282 304 314 327 339 344 348 352 337 322 283 255 248 300 307 315 316 321 325 331 325 336 351 337 345 337 338 331 322 310 295 282 280 275 268 264 262 257
225 221 216 220 237 264 278 308 322 333 341 336 323 299 269 268 261 258 273 306 309 316 320 329 330 326 337 91 350 341 329 325 321 315 309 301 291 284 281 272 270 266 261
205 198 202 216 229 239 258 281 314 325 323 312 298 282 269 258 255 254 265 286 287 307 304 323 314 310 283 320 327 328 321 320 321 316 308 300 293 288 290 297 274 266 268
206 204 209 212 218 221 214 234 280 302 309 302 293 284 274 268 263 261 256 284 301 285 301 256 307 304 262 312 318 320 321 321 320 320 314 307 297 291 290 284 281 276 267
202 204 208 214 215 209 217 254 287 296 294 294 293 286 277 271 272 274 272 260 263 299 304 302 291 270 301 316 326 324 320 316 315 313 314 312 311 304 293 290 284 277 271
204 206 213 216 214 220 241 274 293 300 298 296 295 288 280 276 278 278 276 267 253 256 274 295 289 298 306 315 319 316 319 323 320 315 313 312 311 307 305 297 289 281 273
212 220 224 221 228 245 266 276 298 307 302 302 300 293 286 282 279 278 271 267 258 243 258 280 283 294 300 302 310 311 313 314 313 312 309 309 312 309 304 300 293 287 280
223 227 227 234 250 270 283 292 304 306 304 303 302 293 287 284 279 275 268 265 258 255 254 274 285 291 298 305 307 309 306 305 305 305 304 303 304 303 303 299 293 291 286
235 240 247 262 278 293 301 306 307 305 303 300 295 288 286 283 276 272 266 263 262 263 258 260 278 285 295 305 310 306 302 301 302 302 299 298 300 298 299 296 294 289 284
252 256 268 281 294 304 311 312 311 307 305 299 294 290 285 280 276 275 268 264 264 260 262 262 269 280 287 292 297 300 308 308 304 297 295 292 295 293 293 295 294 287 283
264 278 290 297 305 313 315 317 314 309 305 299 296 292 288 285 280 275 267 262 260 256 259 265 268 271 277 285 291 300 297 303 302 300 299 297 295 294 287 289 290 298 296
297 302 311 314 314 315 316 313 309 306 303 298 294 294 294 291 282 277 263 258 257 253 257 261 267 265 271 275 286 293 295 296 302 302 300 296 299 292 288 286 286 293 287
318 318 318 318 315 313 314 314 313 307 302 300 298 297 294 292 290 285 279 268 260 256 257 263 264 264 270 272 279 287 285 283 284 284 293 288 291 281 280 286 281 283 279
320 321 320 319 317 317 320 320 318 311 307 305 304 304 298 295 290 286 283 277 272 270 266 264 260 265 267 274 274 277 278 275 280 287 288 284 291 280 287 280 284 283 277
322 322 322 322 322 322 327 324 320 314 310 307 309 308 306 302 300 293 276 269 271 271 277 275 270 271 273 272 280 288 282 291 287 286 287 277 283 277 285 287 287 285 277
323 323 323 326 327 325 328 327 322 314 308 309 308 307 310 306 299 291 279 272 270 273 275 281 279 278 276 280 282 276 278 273 277 289 281 261 270 282 292 290 294 307 285